This is the latest recevied weather packets stored in our database for station/object K0QED. If no packets are shown the sender has not sent any weather packets the latest 10 day(s).
| Time | Temp. | Humidity | Pressure | Rain* | Wind** | Luminosity | Snow |
|---|---|---|---|---|---|---|---|
| 1787847679 | 20° C | 62% | 1032 hPa | 0 mm | - | 678 W/m² | - |
| 1787847374 | 20° C | 63% | 1031.7 hPa | 0 mm | - | 131 W/m² | - |
| 1787847070 | 20° C | 62% | 1031.9 hPa | 0 mm | - | 87 W/m² | - |
| 1787846765 | 20° C | 62% | 1031.7 hPa | 0 mm | - | 100 W/m² | - |
| 1787846460 | 20.56° C | 62% | 1031.7 hPa | 0 mm | - | 105 W/m² | - |
| 1787846156 | 21.11° C | 61% | 1032 hPa | 0 mm | - | 133 W/m² | - |
| 1787845851 | 20.56° C | 62% | 1031.5 hPa | 0 mm | - | 175 W/m² | - |
| 1787845547 | 20° C | 64% | 1031.5 hPa | 0 mm | - | 157 W/m² | - |
| 1787845242 | 20° C | 65% | 1031.5 hPa | 0 mm | - | 116 W/m² | - |
| 1787844938 | 19.44° C | 63% | 1031.5 hPa | 0 mm | - | 105 W/m² | - |
| 1787844637 | 18.89° C | 65% | 1031.6 hPa | 0 mm | - | 117 W/m² | - |
| 1787844332 | 18.89° C | 66% | 1031.6 hPa | 0 mm | - | 125 W/m² | - |
| 1787844032 | 18.33° C | 67% | 1031.6 hPa | 0 mm | - | 107 W/m² | - |
| 1787843726 | 17.78° C | 70% | 1031.7 hPa | 0 mm | - | 73 W/m² | - |
| 1787843422 | 17.78° C | 70% | 1031.7 hPa | 0 mm | - | 93 W/m² | - |
| 1787843119 | 17.78° C | 70% | 1031.5 hPa | 0 mm | - | 95 W/m² | - |
| 1787842819 | 17.78° C | 73% | 1031.2 hPa | 0 mm | - | 96 W/m² | - |
| 1787842514 | 17.22° C | 73% | 1031.6 hPa | 0 mm | - | 78 W/m² | - |
| 1787842212 | 17.22° C | 73% | 1031.5 hPa | 0 mm | - | 69 W/m² | - |
| 1787841908 | 16.67° C | 75% | 1031.5 hPa | 0 mm | - | 95 W/m² | - |
| 1787841604 | 16.67° C | 77% | 1031.7 hPa | 0 mm | - | 109 W/m² | - |
| 1787841302 | 15.56° C | 80% | 1031.6 hPa | 0 mm | - | 66 W/m² | - |
| 1787840997 | 15° C | 82% | 1031.9 hPa | 0 mm | - | 50 W/m² | - |
| 1787840693 | 15° C | 83% | 1031.5 hPa | 0 mm | - | 49 W/m² | - |
| 1787840388 | 15° C | 83% | 1031.5 hPa | 0 mm | - | 56 W/m² | - |
* Rain latest hour (hover to see other rain measurements)
** Current wind speed in m/s (hover to see current wind gust speed)